| time (UTC) | temp F | wind direction | speed MPH | gust MPH | rain 1hr in | rain 24hr in | rain mn in | humidity % | barometer mb |
| 20260904021731 | 65 | 172 | 1.0 | 5.0 | 0.00 | 0.00 | 0.00 | 88 | 1018.1 |
| 20260904021232 | 65 | 236 | 1.0 | 5.0 | 0.00 | 0.00 | 0.00 | 88 | 1018.2 |
| 20260904020956 | 65 | 238 | 1.0 | 7.0 | 0.00 | 0.00 | 0.00 | 88 | 1018.1 |
| 20260904020454 | 65 | 215 | 1.0 | 7.0 | 0.00 | 0.00 | 0.00 | 88 | 1018.2 |
| 20260904015732 | 65 | 324 | 1.0 | 2.0 | 0.00 | 0.00 | 0.00 | 87 | 1018.4 |
| 20260904015455 | 66 | 194 | 1.0 | 4.0 | 0.00 | 0.00 | 0.00 | 87 | 1018.4 |
| 20260904014729 | 66 | 317 | 1.0 | 4.0 | 0.00 | 0.00 | 0.00 | 87 | 1018.5 |
| 20260904014228 | 66 | 165 | 1.0 | 6.0 | 0.00 | 0.00 | 0.00 | 87 | 1018.5 |
| 20260904014004 | 66 | 154 | 1.0 | 6.0 | 0.00 | 0.00 | 0.00 | 87 | 1018.4 |
| 20260904013502 | 66 | 219 | 1.0 | 5.0 | 0.00 | 0.00 | 0.00 | 86 | 1018.3 |
| 20260904012728 | 66 | 168 | 1.0 | 5.0 | 0.00 | 0.00 | 0.00 | 86 | 1018.4 |
| 20260904012229 | 65 | 148 | 1.0 | 5.0 | 0.00 | 0.00 | 0.00 | 86 | 1018.4 |
| 20260904011730 | 65 | 184 | 1.0 | 4.0 | 0.00 | 0.00 | 0.00 | 86 | 1018.5 |
| 20260904011229 | 65 | 268 | 1.0 | 4.0 | 0.00 | 0.00 | 0.00 | 86 | 1018.6 |
| 20260904010729 | 65 | 238 | 1.0 | 4.0 | 0.00 | 0.00 | 0.00 | 86 | 1018.7 |
| 20260904010225 | 65 | 203 | 0.0 | 4.0 | 0.00 | 0.00 | 0.00 | 86 | 1018.6 |
| 20260904005719 | 65 | 239 | 0.0 | 4.0 | 0.00 | 0.00 | 0.00 | 86 | 1018.7 |
| 20260904005444 | 65 | 211 | 0.0 | 2.0 | 0.00 | 0.00 | 0.00 | 86 | 1018.6 |
| 20260904004714 | 65 | 311 | 0.0 | 2.0 | 0.00 | 0.00 | 0.00 | 86 | 1018.6 |
| 20260904004212 | 65 | 196 | 0.0 | 4.0 | 0.00 | 0.00 | 0.00 | 86 | 1018.7 |
| 20260904003710 | 65 | 224 | 1.0 | 4.0 | 0.00 | 0.00 | 0.00 | 86 | 1018.7 |
| 20260904003208 | 65 | 221 | 1.0 | 4.0 | 0.00 | 0.00 | 0.00 | 86 | 1018.7 |
| 20260904002707 | 65 | 255 | 1.0 | 4.0 | 0.00 | 0.00 | 0.00 | 86 | 1018.7 |
| 20260904002206 | 65 | 169 | 1.0 | 3.0 | 0.00 | 0.00 | 0.00 | 86 | 1018.8 |
| 20260904001707 | 65 | 244 | 0.0 | 3.0 | 0.00 | 0.00 | 0.00 | 86 | 1018.9 |
| 20260904001207 | 65 | 204 | 0.0 | 2.0 | 0.00 | 0.00 | 0.00 | 86 | 1019.0 |
| 20260904000705 | 65 | 197 | 1.0 | 2.0 | 0.00 | 0.00 | 0.00 | 86 | 1018.9 |
| 20260904000204 | 65 | 198 | 0.0 | 2.0 | 0.00 | 0.00 | 0.00 | 85 | 1019.0 |
| 20260903235708 | 65 | 198 | 1.0 | 3.0 | 0.00 | 0.00 | 0.00 | 85 | 1019.1 |
| 20260903235206 | 66 | 185 | 1.0 | 3.0 | 0.00 | 0.00 | 0.00 | 85 | 1018.9 |
| 20260903234702 | 66 | 222 | 0.0 | 3.0 | 0.00 | 0.00 | 0.00 | 85 | 1019.0 |
| 20260903234201 | 66 | 262 | 0.0 | 3.0 | 0.00 | 0.00 | 0.00 | 85 | 1019.1 |
| 20260903233701 | 66 | 207 | 0.0 | 3.0 | 0.00 | 0.00 | 0.00 | 84 | 1019.2 |
| 20260903233201 | 66 | 205 | 0.0 | 3.0 | 0.00 | 0.00 | 0.00 | 84 | 1019.2 |
| 20260903232701 | 66 | 194 | 0.0 | 2.0 | 0.00 | 0.00 | 0.00 | 83 | 1019.3 |
| 20260903232201 | 67 | 181 | 0.0 | 2.0 | 0.00 | 0.00 | 0.00 | 83 | 1019.2 |
| 20260903231702 | 67 | 188 | 0.0 | 1.0 | 0.00 | 0.00 | 0.00 | 82 | 1019.2 |
| 20260903231201 | 67 | 188 | 0.0 | 4.0 | 0.00 | 0.00 | 0.00 | 82 | 1019.3 |
| 20260903230701 | 67 | 188 | 1.0 | 6.0 | 0.00 | 0.00 | 0.00 | 82 | 1019.2 |
| 20260903230202 | 67 | 163 | 2.0 | 6.0 | 0.00 | 0.00 | 0.00 | 82 | 1019.1 |
| 20260903225927 | 67 | 271 | 2.0 | 6.0 | 0.00 | 0.00 | 0.00 | 82 | 1019.3 |
| 20260903225426 | 67 | 257 | 2.0 | 5.0 | 0.00 | 0.00 | 0.00 | 82 | 1019.3 |
| 20260903224935 | 67 | 209 | 2.0 | 6.0 | 0.00 | 0.00 | 0.00 | 83 | 1019.4 |
| 20260903224435 | 67 | 242 | 2.0 | 8.0 | 0.00 | 0.00 | 0.00 | 83 | 1019.6 |
| 20260903223658 | 67 | 154 | 1.0 | 8.0 | 0.00 | 0.00 | 0.00 | 83 | 1019.5 |
| 20260903223446 | 67 | 253 | 1.0 | 6.0 | 0.00 | 0.00 | 0.00 | 83 | 1019.6 |
| 20260903222713 | 67 | 240 | 1.0 | 6.0 | 0.00 | 0.00 | 0.00 | 83 | 1019.6 |
| 20260903221658 | 67 | 221 | 2.0 | 7.0 | 0.00 | 0.00 | 0.00 | 83 | 1019.9 |
| 20260903221200 | 67 | 231 | 2.0 | 7.0 | 0.00 | 0.00 | 0.00 | 83 | 1019.9 |
| 20260903220700 | 67 | 261 | 2.0 | 9.0 | 0.00 | 0.00 | 0.00 | 83 | 1019.9 |
| 20260903220204 | 67 | 250 | 3.0 | 9.0 | 0.00 | 0.00 | 0.00 | 83 | 1019.9 |
| 20260903215705 | 67 | 267 | 2.0 | 6.0 | 0.00 | 0.00 | 0.00 | 83 | 1019.9 |
| 20260903215156 | 67 | 280 | 2.0 | 6.0 | 0.00 | 0.00 | 0.00 | 82 | 1019.8 |
| 20260903214651 | 67 | 244 | 2.0 | 7.0 | 0.00 | 0.00 | 0.00 | 82 | 1019.8 |
| 20260903214140 | 67 | 280 | 2.0 | 7.0 | 0.00 | 0.00 | 0.00 | 82 | 1019.9 |
| 20260903213905 | 67 | 207 | 2.0 | 7.0 | 0.00 | 0.00 | 0.00 | 82 | 1020.0 |
| 20260903213136 | 67 | 301 | 2.0 | 8.0 | 0.00 | 0.00 | 0.00 | 82 | 1020.0 |
| 20260903212635 | 67 | 241 | 2.0 | 8.0 | 0.00 | 0.00 | 0.00 | 82 | 1020.0 |
| 20260903212403 | 67 | 262 | 2.0 | 8.0 | 0.00 | 0.00 | 0.00 | 82 | 1020.1 |
| 20260903211903 | 67 | 288 | 3.0 | 8.0 | 0.00 | 0.00 | 0.00 | 82 | 1020.0 |
| 20260903211408 | 67 | 299 | 2.0 | 8.0 | 0.00 | 0.00 | 0.00 | 82 | 1020.0 |
| 20260903210636 | 67 | 271 | 3.0 | 9.0 | 0.00 | 0.00 | 0.00 | 82 | 1020.0 |
| 20260903210359 | 67 | 201 | 3.0 | 9.0 | 0.00 | 0.00 | 0.00 | 82 | 1019.9 |
| 20260903205902 | 67 | 242 | 2.0 | 9.0 | 0.00 | 0.00 | 0.00 | 82 | 1020.2 |
| 20260903205132 | 67 | 263 | 2.0 | 8.0 | 0.00 | 0.00 | 0.00 | 82 | 1020.0 |
| 20260903204633 | 67 | 271 | 1.0 | 6.0 | 0.00 | 0.00 | 0.00 | 82 | 1020.1 |
| 20260903204400 | 67 | 277 | 1.0 | 4.0 | 0.00 | 0.00 | 0.00 | 81 | 1020.0 |
| 20260903203629 | 67 | 306 | 1.0 | 5.0 | 0.00 | 0.00 | 0.00 | 81 | 1020.1 |
| 20260903203130 | 67 | 311 | 1.0 | 5.0 | 0.00 | 0.00 | 0.00 | 81 | 1020.0 |
| 20260903202630 | 67 | 284 | 2.0 | 6.0 | 0.00 | 0.00 | 0.00 | 81 | 1020.0 |
| 20260903202129 | 67 | 250 | 1.0 | 6.0 | 0.00 | 0.00 | 0.00 | 81 | 1020.1 |
| 20260903201628 | 67 | 273 | 1.0 | 3.0 | 0.00 | 0.00 | 0.00 | 81 | 1020.2 |
| 20260903201133 | 67 | 281 | 1.0 | 3.0 | 0.00 | 0.00 | 0.00 | 81 | 1020.1 |
| 20260903200631 | 67 | 292 | 1.0 | 4.0 | 0.00 | 0.00 | 0.00 | 81 | 1020.1 |
| 20260903200121 | 67 | 269 | 1.0 | 6.0 | 0.00 | 0.00 | 0.00 | 80 | 1019.9 |
| 20260903195617 | 67 | 259 | 1.0 | 6.0 | 0.00 | 0.00 | 0.00 | 80 | 1019.9 |
| 20260903195110 | 67 | 297 | 1.0 | 3.0 | 0.00 | 0.00 | 0.00 | 80 | 1020.0 |
| 20260903194610 | 67 | 303 | 1.0 | 7.0 | 0.00 | 0.00 | 0.00 | 80 | 1020.0 |
| 20260903194108 | 68 | 297 | 2.0 | 7.0 | 0.00 | 0.00 | 0.00 | 80 | 1019.9 |
| 20260903193609 | 68 | 312 | 2.0 | 6.0 | 0.00 | 0.00 | 0.00 | 79 | 1019.9 |
| 20260903193108 | 68 | 0 | 2.0 | 5.0 | 0.00 | 0.00 | 0.00 | 79 | 1019.7 |
| 20260903192606 | 68 | 311 | 1.0 | 7.0 | 0.00 | 0.00 | 0.00 | 79 | 1019.8 |
| 20260903191607 | 68 | 283 | 1.0 | 4.0 | 0.00 | 0.00 | 0.00 | 79 | 1020.3 |
| 20260903191107 | 68 | 188 | 1.0 | 4.0 | 0.00 | 0.00 | 0.00 | 79 | 1020.3 |
| 20260903190606 | 68 | 268 | 1.0 | 4.0 | 0.00 | 0.00 | 0.00 | 79 | 1020.2 |
| 20260903190332 | 68 | 287 | 1.0 | 4.0 | 0.00 | 0.00 | 0.00 | 78 | 1020.3 |
| 20260903185835 | 68 | 271 | 2.0 | 7.0 | 0.00 | 0.00 | 0.00 | 78 | 1020.1 |
| 20260903185327 | 68 | 272 | 1.0 | 7.0 | 0.00 | 0.00 | 0.00 | 78 | 1020.1 |
| 20260903184604 | 68 | 209 | 0.0 | 7.0 | 0.00 | 0.00 | 0.00 | 79 | 1020.0 |
| 20260903184104 | 68 | 257 | 0.0 | 4.0 | 0.00 | 0.00 | 0.00 | 79 | 1020.1 |
| 20260903183602 | 68 | 263 | 1.0 | 4.0 | 0.00 | 0.00 | 0.00 | 78 | 1019.9 |
| 20260903183101 | 68 | 306 | 1.0 | 6.0 | 0.00 | 0.00 | 0.00 | 78 | 1019.9 |
| 20260903182613 | 68 | 273 | 1.0 | 6.0 | 0.00 | 0.00 | 0.00 | 78 | 1019.9 |
| 20260903181601 | 69 | 296 | 2.0 | 4.0 | 0.00 | 0.00 | 0.00 | 77 | 1019.8 |
| 20260903181058 | 69 | 291 | 2.0 | 7.0 | 0.00 | 0.00 | 0.00 | 77 | 1019.8 |
| 20260903180322 | 69 | 247 | 2.0 | 6.0 | 0.00 | 0.00 | 0.00 | 76 | 1019.7 |
| 20260903175542 | 69 | 311 | 2.0 | 6.0 | 0.00 | 0.00 | 0.00 | 76 | 1020.0 |
| 20260903175042 | 69 | 292 | 2.0 | 6.0 | 0.00 | 0.00 | 0.00 | 76 | 1020.0 |
| 20260903174542 | 69 | 305 | 2.0 | 6.0 | 0.00 | 0.00 | 0.00 | 76 | 1020.0 |
| 20260903174322 | 69 | 342 | 2.0 | 7.0 | 0.00 | 0.00 | 0.00 | 76 | 1019.9 |
| 20260903173542 | 69 | 289 | 2.0 | 7.0 | 0.00 | 0.00 | 0.00 | 76 | 1019.9 |
| 20260903173042 | 69 | 325 | 3.0 | 7.0 | 0.00 | 0.00 | 0.00 | 76 | 1019.9 |
| 20260903172542 | 69 | 325 | 2.0 | 9.0 | 0.00 | 0.00 | 0.00 | 75 | 1019.9 |
| 20260903171542 | 70 | 261 | 2.0 | 9.0 | 0.00 | 0.00 | 0.00 | 75 | 1019.9 |
| 20260903171042 | 70 | 268 | 3.0 | 10.0 | 0.00 | 0.00 | 0.00 | 75 | 1019.8 |
| 20260903170542 | 70 | 329 | 3.0 | 10.0 | 0.00 | 0.00 | 0.00 | 75 | 1020.0 |
| 20260903170042 | 70 | 309 | 4.0 | 16.0 | 0.00 | 0.00 | 0.00 | 75 | 1019.9 |
| 20260903165542 | 70 | 324 | 4.0 | 16.0 | 0.00 | 0.00 | 0.00 | 74 | 1020.0 |
| 20260903165042 | 70 | 355 | 2.0 | 10.0 | 0.00 | 0.00 | 0.00 | 74 | 1019.8 |
| 20260903164538 | 70 | 318 | 2.0 | 9.0 | 0.00 | 0.00 | 0.00 | 74 | 1019.7 |
| 20260903164038 | 70 | 275 | 3.0 | 9.0 | 0.00 | 0.00 | 0.00 | 74 | 1019.7 |
| 20260903163538 | 70 | 309 | 2.0 | 8.0 | 0.00 | 0.00 | 0.00 | 75 | 1019.7 |
| 20260903163038 | 70 | 255 | 2.0 | 8.0 | 0.00 | 0.00 | 0.00 | 76 | 1019.6 |
| 20260903162036 | 69 | 280 | 2.0 | 11.0 | 0.00 | 0.00 | 0.00 | 76 | 1019.7 |
| 20260903161536 | 69 | 312 | 2.0 | 8.0 | 0.00 | 0.00 | 0.00 | 77 | 1019.6 |
| 20260903161036 | 69 | 355 | 1.0 | 4.0 | 0.00 | 0.00 | 0.00 | 78 | 1019.6 |
| 20260903160536 | 69 | 300 | 1.0 | 3.0 | 0.00 | 0.00 | 0.00 | 79 | 1019.7 |
| 20260903160036 | 69 | 355 | 2.0 | 7.0 | 0.00 | 0.00 | 0.00 | 78 | 1019.7 |
| 20260903155531 | 69 | 302 | 2.0 | 7.0 | 0.00 | 0.00 | 0.00 | 78 | 1019.8 |
| 20260903155032 | 69 | 274 | 1.0 | 7.0 | 0.00 | 0.00 | 0.00 | 79 | 1019.7 |
| 20260903154531 | 69 | 286 | 1.0 | 7.0 | 0.00 | 0.00 | 0.00 | 79 | 1019.7 |
| 20260903154032 | 69 | 270 | 1.0 | 7.0 | 0.00 | 0.00 | 0.00 | 80 | 1019.7 |
| 20260903153532 | 69 | 287 | 1.0 | 4.0 | 0.00 | 0.00 | 0.00 | 81 | 1019.8 |
| 20260903153031 | 69 | 288 | 1.0 | 4.0 | 0.00 | 0.00 | 0.00 | 80 | 1019.7 |
| 20260903152534 | 68 | 311 | 1.0 | 7.0 | 0.00 | 0.00 | 0.00 | 80 | 1019.7 |
| 20260903152034 | 68 | 280 | 2.0 | 7.0 | 0.00 | 0.00 | 0.00 | 80 | 1019.8 |
| 20260903151532 | 68 | 315 | 2.0 | 4.0 | 0.00 | 0.00 | 0.00 | 81 | 1019.8 |
| 20260903151258 | 68 | 286 | 1.0 | 4.0 | 0.00 | 0.00 | 0.00 | 82 | 1020.0 |
| 20260903150532 | 67 | 345 | 1.0 | 3.0 | 0.00 | 0.00 | 0.00 | 83 | 1019.9 |
| 20260903150031 | 67 | 284 | 1.0 | 4.0 | 0.00 | 0.00 | 0.00 | 83 | 1019.9 |
| 20260903145532 | 67 | 318 | 2.0 | 4.0 | 0.00 | 0.00 | 0.00 | 82 | 1020.2 |
| 20260903145031 | 67 | 309 | 2.0 | 10.0 | 0.00 | 0.00 | 0.00 | 82 | 1020.3 |
| 20260903144532 | 68 | 288 | 2.0 | 10.0 | 0.00 | 0.00 | 0.00 | 80 | 1020.3 |
| 20260903144030 | 69 | 111 | 2.0 | 8.0 | 0.00 | 0.00 | 0.00 | 80 | 1020.4 |
| 20260903143529 | 69 | 63 | 4.0 | 16.0 | 0.00 | 0.00 | 0.00 | 78 | 1020.3 |
| 20260903143029 | 70 | 297 | 4.0 | 16.0 | 0.00 | 0.00 | 0.00 | 76 | 1020.3 |
| 20260903142529 | 72 | 310 | 4.0 | 13.0 | 0.00 | 0.00 | 0.00 | 74 | 1020.2 |
| 20260903142029 | 73 | 315 | 3.0 | 11.0 | 0.00 | 0.00 | 0.00 | 70 | 1020.0 |
| 20260903141529 | 74 | 276 | 4.0 | 13.0 | 0.00 | 0.00 | 0.00 | 68 | 1019.6 |
| 20260903141029 | 74 | 265 | 3.0 | 13.0 | 0.00 | 0.00 | 0.00 | 68 | 1019.4 |
| 20260903140527 | 74 | 317 | 4.0 | 11.0 | 0.00 | 0.00 | 0.00 | 70 | 1019.6 |
| 20260903140253 | 74 | 269 | 4.0 | 16.0 | 0.00 | 0.00 | 0.00 | 68 | 1019.4 |
| 20260903135525 | 74 | 311 | 4.0 | 16.0 | 0.00 | 0.00 | 0.00 | 67 | 1019.5 |
| 20260903135246 | 73 | 318 | 4.0 | 10.0 | 0.00 | 0.00 | 0.00 | 68 | 1019.3 |
| 20260903134524 | 73 | 331 | 3.0 | 8.0 | 0.00 | 0.00 | 0.00 | 68 | 1019.4 |
| 20260903134253 | 73 | 344 | 2.0 | 7.0 | 0.00 | 0.00 | 0.00 | 68 | 1019.5 |
| 20260903133522 | 73 | 22 | 2.0 | 7.0 | 0.00 | 0.00 | 0.00 | 68 | 1019.5 |
| 20260903133022 | 73 | 255 | 2.0 | 10.0 | 0.00 | 0.00 | 0.00 | 68 | 1019.5 |
| 20260903132520 | 73 | 303 | 2.0 | 10.0 | 0.00 | 0.00 | 0.00 | 67 | 1019.5 |
| 20260903132019 | 74 | 275 | 2.0 | 8.0 | 0.00 | 0.00 | 0.00 | 67 | 1019.5 |
| 20260903131517 | 74 | 5 | 3.0 | 10.0 | 0.00 | 0.00 | 0.00 | 66 | 1019.5 |
| 20260903131249 | 74 | 49 | 3.0 | 10.0 | 0.00 | 0.00 | 0.00 | 66 | 1019.5 |
| 20260903130512 | 74 | 263 | 2.0 | 5.0 | 0.00 | 0.00 | 0.00 | 70 | 1019.6 |
| 20260903130009 | 73 | 292 | 2.0 | 8.0 | 0.00 | 0.00 | 0.00 | 71 | 1019.5 |
| 20260903125742 | 72 | 332 | 2.0 | 8.0 | 0.00 | 0.00 | 0.00 | 69 | 1019.5 |
| 20260903125009 | 71 | 288 | 3.0 | 8.0 | 0.00 | 0.00 | 0.00 | 70 | 1019.5 |
| 20260903124507 | 71 | 355 | 2.0 | 8.0 | 0.00 | 0.00 | 0.00 | 68 | 1019.6 |
| 20260903124235 | 70 | 20 | 1.0 | 7.0 | 0.00 | 0.00 | 0.00 | 71 | 1019.5 |
| 20260903123504 | 69 | 314 | 1.0 | 6.0 | 0.00 | 0.00 | 0.00 | 73 | 1019.6 |
| 20260903123001 | 69 | 18 | 1.0 | 6.0 | 0.00 | 0.00 | 0.00 | 74 | 1019.7 |
| 20260903122502 | 68 | 312 | 1.0 | 8.0 | 0.00 | 0.00 | 0.00 | 74 | 1019.6 |
| 20260903122001 | 68 | 280 | 1.0 | 8.0 | 0.00 | 0.00 | 0.00 | 75 | 1019.6 |
| 20260903121502 | 68 | 275 | 1.0 | 5.0 | 0.00 | 0.00 | 0.00 | 76 | 1019.8 |
| 20260903121223 | 68 | 162 | 0.0 | 3.0 | 0.00 | 0.00 | 0.00 | 78 | 1019.5 |
| 20260903120501 | 67 | 184 | 0.0 | 3.0 | 0.00 | 0.00 | 0.00 | 78 | 1019.6 |
| 20260903120225 | 67 | 196 | 1.0 | 3.0 | 0.00 | 0.00 | 0.00 | 78 | 1019.7 |
| 20260903115501 | 68 | 248 | 0.0 | 3.0 | 0.00 | 0.00 | 0.00 | 78 | 1019.9 |
| 20260903115001 | 68 | 234 | 0.0 | 2.0 | 0.00 | 0.00 | 0.00 | 77 | 1019.9 |
| 20260903114500 | 68 | 16 | 0.0 | 2.0 | 0.00 | 0.00 | 0.00 | 74 | 1020.0 |
| 20260903114235 | 69 | 16 | 1.0 | 4.0 | 0.00 | 0.00 | 0.00 | 73 | 1020.0 |
| 20260903113504 | 69 | 269 | 1.0 | 4.0 | 0.00 | 0.00 | 0.00 | 71 | 1019.9 |
| 20260903112957 | 69 | 281 | 1.0 | 4.0 | 0.00 | 0.00 | 0.00 | 73 | 1019.8 |
| 20260903112716 | 69 | 297 | 2.0 | 6.0 | 0.00 | 0.00 | 0.00 | 71 | 1019.7 |
| 20260903111946 | 69 | 309 | 2.0 | 7.0 | 0.00 | 0.00 | 0.00 | 70 | 1019.7 |
| 20260903111452 | 69 | 257 | 2.0 | 7.0 | 0.00 | 0.00 | 0.00 | 71 | 1019.8 |
| 20260903110939 | 69 | 294 | 2.0 | 8.0 | 0.00 | 0.00 | 0.00 | 70 | 1019.8 |
| 20260903110703 | 68 | 276 | 3.0 | 8.0 | 0.00 | 0.00 | 0.00 | 69 | 1019.7 |
| 20260903105935 | 68 | 217 | 3.0 | 8.0 | 0.00 | 0.00 | 0.00 | 69 | 1019.8 |
| 20260903105435 | 68 | 138 | 3.0 | 8.0 | 0.00 | 0.00 | 0.00 | 68 | 1019.8 |
| 20260903104935 | 68 | 296 | 2.0 | 8.0 | 0.00 | 0.00 | 0.00 | 68 | 1019.9 |
| 20260903104435 | 68 | 98 | 1.0 | 8.0 | 0.00 | 0.00 | 0.00 | 69 | 1019.9 |
| 20260903103935 | 68 | 88 | 1.0 | 7.0 | 0.00 | 0.00 | 0.00 | 69 | 1019.9 |
| 20260903103434 | 67 | 165 | 1.0 | 7.0 | 0.00 | 0.00 | 0.00 | 69 | 1019.8 |
| 20260903101932 | 67 | 191 | 1.0 | 7.0 | 0.00 | 0.00 | 0.00 | 69 | 1019.9 |
| 20260903101431 | 66 | 205 | 2.0 | 7.0 | 0.00 | 0.00 | 0.00 | 71 | 1019.8 |
| 20260903100929 | 65 | 207 | 1.0 | 7.0 | 0.00 | 0.00 | 0.00 | 72 | 1019.9 |
| 20260903100429 | 65 | 185 | 1.0 | 5.0 | 0.00 | 0.00 | 0.00 | 72 | 1019.9 |
| 20260903095929 | 64 | 221 | 1.0 | 4.0 | 0.00 | 0.00 | 0.00 | 73 | 1020.0 |
| 20260903095428 | 64 | 177 | 1.0 | 4.0 | 0.00 | 0.00 | 0.00 | 74 | 1019.9 |
| 20260903095201 | 64 | 193 | 2.0 | 8.0 | 0.00 | 0.00 | 0.00 | 73 | 1019.9 |
| 20260903094704 | 64 | 182 | 2.0 | 8.0 | 0.00 | 0.00 | 0.00 | 73 | 1019.7 |
| 20260903093923 | 64 | 244 | 2.0 | 6.0 | 0.00 | 0.00 | 0.00 | 73 | 1019.8 |
| 20260903093417 | 64 | 198 | 2.0 | 6.0 | 0.00 | 0.00 | 0.00 | 71 | 1019.8 |
| 20260903092910 | 64 | 200 | 2.0 | 7.0 | 0.00 | 0.00 | 0.00 | 70 | 1020.0 |
| 20260903092405 | 64 | 200 | 2.0 | 7.0 | 0.00 | 0.00 | 0.00 | 70 | 1020.1 |
| 20260903092138 | 64 | 187 | 2.0 | 6.0 | 0.00 | 0.00 | 0.00 | 70 | 1020.1 |
| 20260903091403 | 64 | 178 | 2.0 | 8.0 | 0.00 | 0.00 | 0.00 | 71 | 1020.0 |
| 20260903090903 | 64 | 193 | 2.0 | 8.0 | 0.00 | 0.00 | 0.00 | 71 | 1019.9 |
| 20260903090403 | 64 | 272 | 2.0 | 7.0 | 0.00 | 0.00 | 0.00 | 71 | 1019.9 |
| 20260903085903 | 64 | 193 | 3.0 | 9.0 | 0.00 | 0.00 | 0.00 | 71 | 1019.9 |
| 20260903085404 | 63 | 161 | 2.0 | 9.0 | 0.00 | 0.00 | 0.00 | 72 | 1020.0 |
| 20260903084902 | 63 | 219 | 3.0 | 8.0 | 0.00 | 0.00 | 0.00 | 73 | 1020.1 |
| 20260903084403 | 63 | 148 | 3.0 | 8.0 | 0.00 | 0.00 | 0.00 | 72 | 1020.0 |
| 20260903083907 | 62 | 173 | 3.0 | 8.0 | 0.00 | 0.00 | 0.00 | 73 | 1020.1 |
| 20260903083407 | 62 | 181 | 2.0 | 8.0 | 0.00 | 0.00 | 0.00 | 73 | 1020.0 |
| 20260903082918 | 62 | 254 | 2.0 | 8.0 | 0.00 | 0.00 | 0.00 | 74 | 1020.2 |
| 20260903082403 | 62 | 189 | 3.0 | 8.0 | 0.00 | 0.00 | 0.00 | 74 | 1020.3 |
| 20260903081903 | 62 | 234 | 3.0 | 8.0 | 0.00 | 0.00 | 0.00 | 73 | 1020.3 |
| 20260903081631 | 62 | 175 | 2.0 | 6.0 | 0.00 | 0.00 | 0.00 | 73 | 1020.3 |
| 20260903080901 | 62 | 198 | 1.0 | 7.0 | 0.00 | 0.00 | 0.00 | 74 | 1020.2 |
| 20260903080404 | 61 | 185 | 2.0 | 7.0 | 0.00 | 0.00 | 0.00 | 73 | 1020.3 |
| 20260903080129 | 61 | 185 | 2.0 | 6.0 | 0.00 | 0.00 | 0.00 | 73 | 1020.4 |
| 20260903075401 | 61 | 220 | 2.0 | 7.0 | 0.00 | 0.00 | 0.00 | 74 | 1020.3 |
| 20260903075136 | 61 | 209 | 2.0 | 7.0 | 0.00 | 0.00 | 0.00 | 74 | 1020.3 |
| 20260903074401 | 61 | 196 | 2.0 | 6.0 | 0.00 | 0.00 | 0.00 | 73 | 1020.2 |
| 20260903073902 | 61 | 214 | 1.0 | 6.0 | 0.00 | 0.00 | 0.00 | 74 | 1020.4 |
| 20260903073636 | 61 | 277 | 2.0 | 6.0 | 0.00 | 0.00 | 0.00 | 74 | 1020.2 |
| 20260903073134 | 61 | 226 | 1.0 | 8.0 | 0.00 | 0.00 | 0.00 | 74 | 1020.3 |
| 20260903072401 | 61 | 173 | 2.0 | 9.0 | 0.00 | 0.00 | 0.00 | 73 | 1020.3 |
| 20260903071902 | 61 | 134 | 2.0 | 9.0 | 0.00 | 0.00 | 0.00 | 73 | 1020.2 |
| 20260903071359 | 61 | 155 | 2.0 | 9.0 | 0.00 | 0.00 | 0.00 | 73 | 1020.2 |
| 20260903070859 | 61 | 188 | 2.0 | 9.0 | 0.00 | 0.00 | 0.00 | 73 | 1020.2 |
| 20260903070359 | 61 | 253 | 2.0 | 11.0 | 0.00 | 0.00 | 0.00 | 74 | 1020.4 |
| 20260903065902 | 61 | 225 | 3.0 | 11.0 | 0.00 | 0.00 | 0.00 | 74 | 1020.3 |
| 20260903065359 | 60 | 205 | 3.0 | 11.0 | 0.00 | 0.00 | 0.00 | 74 | 1020.4 |
| 20260903064859 | 60 | 231 | 2.0 | 11.0 | 0.00 | 0.00 | 0.00 | 74 | 1020.4 |
| 20260903064359 | 60 | 211 | 2.0 | 11.0 | 0.00 | 0.00 | 0.00 | 74 | 1020.3 |
| 20260903063852 | 60 | 214 | 2.0 | 8.0 | 0.00 | 0.00 | 0.00 | 75 | 1020.3 |
| 20260903063353 | 60 | 137 | 2.0 | 13.0 | 0.00 | 0.00 | 0.00 | 75 | 1020.3 |
| 20260903062855 | 60 | 174 | 3.0 | 13.0 | 0.00 | 0.00 | 0.00 | 74 | 1020.4 |
| 20260903062351 | 60 | 176 | 2.0 | 9.0 | 0.00 | 0.00 | 0.00 | 74 | 1020.3 |
| 20260903061848 | 60 | 232 | 2.0 | 8.0 | 0.00 | 0.00 | 0.00 | 74 | 1020.2 |
| 20260903061349 | 60 | 263 | 2.0 | 8.0 | 0.00 | 0.00 | 0.00 | 74 | 1020.1 |
| 20260903060852 | 60 | 252 | 2.0 | 9.0 | 0.00 | 0.00 | 0.00 | 75 | 1020.0 |
| 20260903060349 | 59 | 173 | 2.0 | 9.0 | 0.00 | 0.00 | 0.00 | 75 | 1020.1 |
| 20260903060128 | 59 | 159 | 2.0 | 6.0 | 0.00 | 0.00 | 0.00 | 76 | 1020.1 |
| 20260903055349 | 59 | 198 | 2.0 | 5.0 | 0.00 | 0.00 | 0.00 | 76 | 1020.2 |
| 20260903055120 | 59 | 202 | 2.0 | 8.0 | 0.00 | 0.00 | 0.00 | 75 | 1020.2 |
| 20260903054346 | 59 | 193 | 2.0 | 8.0 | 0.00 | 0.00 | 0.00 | 76 | 1020.3 |
| 20260903053846 | 59 | 177 | 2.0 | 6.0 | 0.00 | 0.00 | 0.00 | 76 | 1020.4 |
| 20260903053346 | 59 | 229 | 2.0 | 7.0 | 0.00 | 0.00 | 0.00 | 76 | 1020.3 |
| 20260903052349 | 58 | 219 | 2.0 | 6.0 | 0.00 | 0.00 | 0.00 | 76 | 1020.5 |
| 20260903051344 | 58 | 195 | 3.0 | 8.0 | 0.00 | 0.00 | 0.00 | 76 | 1020.3 |
| 20260903050845 | 58 | 292 | 3.0 | 8.0 | 0.00 | 0.00 | 0.00 | 75 | 1020.2 |
| 20260903050617 | 58 | 196 | 3.0 | 8.0 | 0.00 | 0.00 | 0.00 | 76 | 1020.0 |
| 20260903045845 | 58 | 200 | 3.0 | 11.0 | 0.00 | 0.00 | 0.00 | 75 | 1020.0 |
| 20260903045344 | 59 | 180 | 3.0 | 11.0 | 0.00 | 0.00 | 0.00 | 75 | 1020.1 |
| 20260903045104 | 59 | 163 | 3.0 | 9.0 | 0.00 | 0.00 | 0.00 | 75 | 1020.0 |
| 20260903044341 | 59 | 190 | 4.0 | 10.0 | 0.00 | 0.00 | 0.00 | 75 | 1020.2 |
| 20260903043841 | 59 | 175 | 3.0 | 10.0 | 0.00 | 0.00 | 0.00 | 75 | 1020.1 |
| 20260903043343 | 59 | 179 | 2.0 | 7.0 | 0.00 | 0.00 | 0.00 | 74 | 1020.1 |
| 20260903042841 | 60 | 200 | 3.0 | 11.0 | 0.00 | 0.00 | 0.00 | 74 | 1020.2 |
| 20260903042341 | 60 | 192 | 3.0 | 11.0 | 0.00 | 0.00 | 0.00 | 74 | 1020.3 |
| 20260903041841 | 60 | 186 | 2.0 | 8.0 | 0.00 | 0.00 | 0.00 | 74 | 1020.2 |
| 20260903041341 | 60 | 242 | 1.0 | 6.0 | 0.00 | 0.00 | 0.00 | 74 | 1020.4 |
| 20260903040841 | 59 | 205 | 1.0 | 4.0 | 0.00 | 0.00 | 0.00 | 75 | 1020.5 |
| 20260903040341 | 59 | 197 | 1.0 | 4.0 | 0.00 | 0.00 | 0.00 | 75 | 1020.6 |
| 20260903035839 | 59 | 188 | 0.0 | 4.0 | 0.00 | 0.00 | 0.00 | 75 | 1020.6 |
| 20260903035335 | 59 | 211 | 0.0 | 2.0 | 0.00 | 0.00 | 0.00 | 75 | 1020.6 |
| 20260903034833 | 59 | 219 | 0.0 | 2.0 | 0.00 | 0.00 | 0.00 | 75 | 1020.7 |
| 20260903034333 | 59 | 207 | 1.0 | 4.0 | 0.00 | 0.00 | 0.00 | 76 | 1020.8 |
| 20260903033833 | 59 | 202 | 1.0 | 4.0 | 0.00 | 0.00 | 0.00 | 74 | 1020.7 |
| 20260903033331 | 59 | 254 | 1.0 | 4.0 | 0.00 | 0.00 | 0.00 | 75 | 1020.8 |
| 20260903032830 | 59 | 180 | 1.0 | 4.0 | 0.00 | 0.00 | 0.00 | 74 | 1020.5 |
| 20260903032558 | 59 | 180 | 1.0 | 4.0 | 0.00 | 0.00 | 0.00 | 74 | 1020.6 |
| 20260903032101 | 59 | 190 | 2.0 | 5.0 | 0.00 | 0.00 | 0.00 | 75 | 1020.6 |
| 20260903031334 | 59 | 196 | 2.0 | 6.0 | 0.00 | 0.00 | 0.00 | 75 | 1020.4 |
| 20260903030830 | 59 | 183 | 2.0 | 6.0 | 0.00 | 0.00 | 0.00 | 75 | 1020.4 |
| 20260903030328 | 59 | 179 | 2.0 | 5.0 | 0.00 | 0.00 | 0.00 | 75 | 1020.5 |
| 20260903025828 | 59 | 192 | 2.0 | 5.0 | 0.00 | 0.00 | 0.00 | 75 | 1020.5 |
| 20260903025330 | 59 | 180 | 2.0 | 6.0 | 0.00 | 0.00 | 0.00 | 75 | 1020.6 |
| 20260903025050 | 59 | 223 | 2.0 | 6.0 | 0.00 | 0.00 | 0.00 | 75 | 1020.6 |
| 20260903024321 | 59 | 182 | 2.0 | 6.0 | 0.00 | 0.00 | 0.00 | 75 | 1020.7 |
| 20260903023820 | 59 | 175 | 2.0 | 6.0 | 0.00 | 0.00 | 0.00 | 75 | 1020.7 |
| 20260903023320 | 59 | 181 | 1.0 | 6.0 | 0.00 | 0.00 | 0.00 | 75 | 1020.9 |
| 20260903022819 | 59 | 181 | 1.0 | 5.0 | 0.00 | 0.00 | 0.00 | 75 | 1020.9 |
| 20260903022318 | 59 | 195 | 1.0 | 5.0 | 0.00 | 0.00 | 0.00 | 76 | 1021.1 |